Location: Newark
(54.6833°N, 25.2833°E)
Time: 10:38:48
(UTC+00:00)

Tiros 1 despin weight - Pass Details

Date: 25 November 2019
Orbit: 594 x 642 km, 48.2° (Epoch: 14 December)

Event Time Altitude Azimuth Distance (km) Brightness Sun altitude
Rises 10:53:16 0° 240° (WSW) 2,825 ? 13.9°
Reaches altitude 10° 10:55:43 10° 230° (SW) 1,924 ? 13.8°
Maximum altitude 10:59:37 32° 168° (SSE) 1,038 ? 13.7°
Drops below altitude 10° 11:03:33 10° 105° (ESE) 1,934 ? 13.6°
Sets 11:06:01 0° 96° (E) 2,842 ? 13.5°
